• în România
  • Lista ţărilor
  • Pe 7 zile
  • Temperatura apei
  • Hartă satelitară
  • Meteo pe hartă
  • Widget-uri
  • user-avatar
    Intrare

    Meteo pe oră la Igls

    Astăzi, 17 August, Vineri

    Timp Temperatura Precipitaţii Vânt Presiune Umiditate
    00:00 +15°C° 0 mm 1 m/s 685 mmHg 90%
    01:00 +15°C° 0 mm 1 m/s 685 mmHg 90%
    02:00 +15°C° 0 mm 1 m/s 685 mmHg 90%
    03:00 +14°C° 0 mm 1 m/s 685 mmHg 89%
    04:00 +14°C° 0 mm 1 m/s 685 mmHg 89%
    05:00 +15°C° 0 mm 1 m/s 685 mmHg 86%
    06:00 +18°C° 0 mm 1 m/s 685 mmHg 84%
    07:00 +19°C° 0 mm 1 m/s 686 mmHg 81%
    08:00 +21°C° 0 mm 1 m/s 686 mmHg 71%
    09:00 +23°C° 0 mm 1 m/s 686 mmHg 62%
    10:00 +26°C° 0 mm 1 m/s 687 mmHg 53%
    11:00 +26°C° 0,1 mm 1 m/s 687 mmHg 51%
    12:00 +27°C° 0,1 mm 1 m/s 687 mmHg 49%
    13:00 +27°C° 0,1 mm 2 m/s 687 mmHg 48%
    14:00 +26°C° 0,3 mm 2 m/s 686 mmHg 53%
    15:00 +26°C° 0,3 mm 2 m/s 686 mmHg 58%
    16:00 +25°C° 0,3 mm 2 m/s 686 mmHg 64%
    17:00 +23°C° 0,9 mm 2 m/s 686 mmHg 72%
    18:00 +22°C° 0,9 mm 1 m/s 686 mmHg 80%
    19:00 +20°C° 0,9 mm 1 m/s 686 mmHg 88%
    20:00 +19°C° 0,7 mm 1 m/s 686 mmHg 90%
    21:00 +19°C° 0,7 mm 1 m/s 686 mmHg 92%
    22:00 +18°C° 0,7 mm 1 m/s 687 mmHg 94%
    23:00 +16°C° 0,2 mm 1 m/s 687 mmHg 94%

    Mâine, 18 August, Sâmbătă

    Timp Temperatura Precipitaţii Vânt Presiune Umiditate
    00:00 +16°C° 0,2 mm 1 m/s 687 mmHg 95%
    01:00 +16°C° 0,2 mm 1 m/s 687 mmHg 95%
    02:00 +16°C° 0,1 mm 1 m/s 687 mmHg 95%
    03:00 +15°C° 0,1 mm 1 m/s 687 mmHg 95%
    04:00 +15°C° 0,1 mm 1 m/s 687 mmHg 95%
    05:00 +16°C° 0 mm 1 m/s 687 mmHg 94%
    06:00 +18°C° 0 mm 1 m/s 687 mmHg 93%
    07:00 +19°C° 0 mm 1 m/s 688 mmHg 92%
    08:00 +20°C° 0,1 mm 1 m/s 688 mmHg 86%
    09:00 +21°C° 0,1 mm 1 m/s 688 mmHg 81%
    10:00 +23°C° 0,1 mm 1 m/s 689 mmHg 76%
    11:00 +23°C° 0,5 mm 1 m/s 689 mmHg 75%
    12:00 +23°C° 0,5 mm 1 m/s 688 mmHg 75%
    13:00 +23°C° 0,5 mm 2 m/s 688 mmHg 75%
    14:00 +23°C° 1,2 mm 2 m/s 688 mmHg 77%
    15:00 +23°C° 1,2 mm 2 m/s 688 mmHg 80%
    16:00 +21°C° 1,2 mm 2 m/s 688 mmHg 83%
    17:00 +22°C° 1,3 mm 1 m/s 688 mmHg 87%
    18:00 +21°C° 1,3 mm 1 m/s 688 mmHg 91%
    19:00 +20°C° 1,3 mm 1 m/s 688 mmHg 95%
    20:00 +19°C° 1,2 mm 1 m/s 688 mmHg 95%
    21:00 +17°C° 1,2 mm 0 m/s 689 mmHg 96%
    22:00 +17°C° 1,2 mm 0 m/s 689 mmHg 97%
    23:00 +16°C° 0,5 mm 0 m/s 689 mmHg 97%

    Poimâine, 19 August, Duminică

    Timp Temperatura Precipitaţii Vânt Presiune Umiditate
    00:00 +16°C° 0,5 mm 0 m/s 689 mmHg 97%
    01:00 +16°C° 0,5 mm 0 m/s 689 mmHg 97%
    02:00 +15°C° 0,1 mm 0 m/s 689 mmHg 97%
    03:00 +15°C° 0,1 mm 0 m/s 689 mmHg 97%
    04:00 +15°C° 0,1 mm 0 m/s 689 mmHg 97%
    05:00 +15°C° 0 mm 0 m/s 689 mmHg 96%
    06:00 +16°C° 0 mm 0 m/s 689 mmHg 95%
    07:00 +17°C° 0 mm 0 m/s 689 mmHg 94%
    08:00 +18°C° 0 mm 0 m/s 689 mmHg 88%
    09:00 +19°C° 0 mm 0 m/s 690 mmHg 82%
    10:00 +21°C° 0 mm 0 m/s 690 mmHg 75%
    11:00 +24°C° 0,4 mm 1 m/s 690 mmHg 72%
    12:00 +24°C° 0,4 mm 1 m/s 690 mmHg 69%
    13:00 +25°C° 0,4 mm 1 m/s 689 mmHg 65%
    14:00 +25°C° 1,4 mm 1 m/s 689 mmHg 68%
    15:00 +25°C° 1,4 mm 1 m/s 689 mmHg 71%
    16:00 +24°C° 1,4 mm 1 m/s 689 mmHg 74%
    17:00 +23°C° 1,2 mm 1 m/s 689 mmHg 80%
    18:00 +22°C° 1,2 mm 1 m/s 689 mmHg 87%
    19:00 +18°C° 1,2 mm 0 m/s 689 mmHg 93%
    20:00 +20°C° 0,6 mm 1 m/s 689 mmHg 94%
    21:00 +19°C° 0,6 mm 1 m/s 689 mmHg 95%
    22:00 +18°C° 0,6 mm 1 m/s 689 mmHg 96%
    23:00 +18°C° 0,2 mm 1 m/s 689 mmHg 96%

    20 August, Luni

    Timp Temperatura Precipitaţii Vânt Presiune Umiditate
    00:00 +18°C° 0,2 mm 1 m/s 689 mmHg 97%
    01:00 +15°C° 0,2 mm 0 m/s 688 mmHg 97%
    02:00 +16°C° 0 mm 1 m/s 688 mmHg 97%
    03:00 +16°C° 0 mm 1 m/s 688 mmHg 97%
    04:00 +15°C° 0 mm 1 m/s 688 mmHg 97%
    05:00 +16°C° 0 mm 1 m/s 688 mmHg 95%
    06:00 +18°C° 0 mm 1 m/s 688 mmHg 94%
    07:00 +17°C° 0 mm 0 m/s 689 mmHg 92%
    08:00 +19°C° 0 mm 0 m/s 689 mmHg 84%
    09:00 +23°C° 0 mm 1 m/s 689 mmHg 77%
    10:00 +25°C° 0 mm 1 m/s 689 mmHg 69%
    11:00 +25°C° 0,5 mm 1 m/s 689 mmHg 68%
    12:00 +26°C° 0,5 mm 1 m/s 689 mmHg 67%
    13:00 +26°C° 0,5 mm 1 m/s 689 mmHg 66%
    14:00 +26°C° 1,2 mm 1 m/s 689 mmHg 69%
    15:00 +25°C° 1,2 mm 1 m/s 688 mmHg 73%
    16:00 +25°C° 1,2 mm 1 m/s 688 mmHg 76%
    17:00 +23°C° 1 mm 1 m/s 688 mmHg 82%
    18:00 +22°C° 1 mm 1 m/s 688 mmHg 87%
    19:00 +21°C° 1 mm 1 m/s 688 mmHg 92%
    20:00 +20°C° 0,4 mm 1 m/s 688 mmHg 93%
    21:00 +19°C° 0,4 mm 1 m/s 688 mmHg 95%
    22:00 +19°C° 0,4 mm 1 m/s 689 mmHg 96%
    23:00 +19°C° 0,1 mm 1 m/s 689 mmHg 96%

    21 August, Marţi

    Timp Temperatura Precipitaţii Vânt Presiune Umiditate
    00:00 +18°C° 0,1 mm 1 m/s 689 mmHg 96%
    01:00 +18°C° 0,1 mm 1 m/s 689 mmHg 97%
    02:00 +18°C° 0 mm 1 m/s 688 mmHg 96%
    03:00 +18°C° 0 mm 1 m/s 688 mmHg 96%
    04:00 +18°C° 0 mm 1 m/s 688 mmHg 96%
    05:00 +16°C° 0 mm 0 m/s 688 mmHg 95%
    06:00 +17°C° 0 mm 0 m/s 689 mmHg 93%
    07:00 +18°C° 0 mm 0 m/s 689 mmHg 91%
    08:00 +20°C° 0 mm 0 m/s 689 mmHg 82%
    09:00 +22°C° 0 mm 0 m/s 690 mmHg 74%
    10:00 +26°C° 0 mm 1 m/s 690 mmHg 65%
    11:00 +26°C° 0,9 mm 1 m/s 690 mmHg 64%
    12:00 +27°C° 0,9 mm 1 m/s 689 mmHg 63%
    13:00 +27°C° 0,9 mm 1 m/s 689 mmHg 62%
    14:00 +27°C° 1,6 mm 1 m/s 689 mmHg 64%
    15:00 +26°C° 1,6 mm 1 m/s 689 mmHg 67%
    16:00 +26°C° 1,6 mm 1 m/s 688 mmHg 69%
    17:00 +24°C° 1,8 mm 1 m/s 688 mmHg 76%
    18:00 +23°C° 1,8 mm 1 m/s 688 mmHg 82%
    19:00 +22°C° 1,8 mm 1 m/s 688 mmHg 88%
    20:00 +21°C° 1,4 mm 1 m/s 688 mmHg 90%
    21:00 +20°C° 1,4 mm 1 m/s 688 mmHg 91%
    22:00 +20°C° 1,4 mm 1 m/s 688 mmHg 92%
    23:00 +20°C° 0,7 mm 1 m/s 688 mmHg 93%

    22 August, Miercuri

    Timp Temperatura Precipitaţii Vânt Presiune Umiditate
    00:00 +19°C° 0,7 mm 1 m/s 688 mmHg 93%
    01:00 +19°C° 0,7 mm 1 m/s 688 mmHg 93%
    02:00 +19°C° 0,6 mm 1 m/s 688 mmHg 93%
    03:00 +19°C° 0,6 mm 1 m/s 688 mmHg 93%
    04:00 +19°C° 0,6 mm 1 m/s 687 mmHg 93%
    05:00 +19°C° 0,3 mm 1 m/s 688 mmHg 92%
    06:00 +20°C° 0,3 mm 1 m/s 688 mmHg 91%
    07:00 +20°C° 0,3 mm 1 m/s 688 mmHg 89%
    08:00 +22°C° 0,2 mm 1 m/s 688 mmHg 82%
    09:00 +22°C° 0,2 mm 0 m/s 688 mmHg 74%
    10:00 +23°C° 0,2 mm 0 m/s 688 mmHg 67%
    11:00 +26°C° 0,7 mm 1 m/s 688 mmHg 65%
    12:00 +26°C° 0,7 mm 1 m/s 688 mmHg 64%
    13:00 +26°C° 0,7 mm 1 m/s 688 mmHg 63%
    14:00 +26°C° 1,1 mm 1 m/s 688 mmHg 65%
    15:00 +26°C° 1,1 mm 1 m/s 688 mmHg 68%
    16:00 +25°C° 1,1 mm 1 m/s 687 mmHg 71%
    17:00 +24°C° 1,1 mm 1 m/s 687 mmHg 77%
    18:00 +22°C° 1,1 mm 1 m/s 687 mmHg 83%
    19:00 +19°C° 1,1 mm 0 m/s 687 mmHg 89%
    20:00 +18°C° 0,3 mm 0 m/s 687 mmHg 90%
    21:00 +20°C° 0,3 mm 1 m/s 687 mmHg 91%
    22:00 +19°C° 0,3 mm 1 m/s 687 mmHg 92%
    23:00 +19°C° 0 mm 1 m/s 687 mmHg 92%
    Arată mai mult